When you browse on this site, cookies collect data to enhance your experience and personalize the content and advertising you see.
Visit our Privacy Policy to learn more. By continuing to use the site, you agree to this use of cookies and data.
  • In Sweden
  • List of Countries
  • For 7 days
  • Water Temperature
  • Weather Map
  • Weather Widgets
  • user-avatar
    Login

    Hourly Weather Mochalkovo

    Today, 20 September, Friday

    Time Temperature Precipitation Wind Pressure Humidity
    00:00 +4°C° 0 mm 1 mps 750 mmHg 93%
    01:00 +4°C° 0 mm 1 mps 750 mmHg 92%
    02:00 +3°C° 0 mm 1 mps 751 mmHg 87%
    03:00 +3°C° 0 mm 1 mps 751 mmHg 87%
    04:00 +3°C° 0 mm 1 mps 751 mmHg 87%
    05:00 +3°C° 0 mm 1 mps 750 mmHg 86%
    06:00 +3°C° 0 mm 2 mps 751 mmHg 86%
    07:00 +4°C° 0 mm 2 mps 751 mmHg 85%
    08:00 +5°C° 0 mm 2 mps 751 mmHg 83%
    09:00 +5°C° 0.2 mm 3 mps 751 mmHg 80%
    10:00 +7°C° 0.2 mm 3 mps 752 mmHg 78%
    11:00 +8°C° 0.2 mm 3 mps 752 mmHg 75%
    12:00 +7°C° 0.2 mm 4 mps 752 mmHg 69%
    13:00 +8°C° 0.2 mm 4 mps 752 mmHg 64%
    14:00 +8°C° 0.2 mm 4 mps 752 mmHg 58%
    15:00 +9°C° 0 mm 3 mps 752 mmHg 60%
    16:00 +8°C° 0 mm 3 mps 752 mmHg 62%
    17:00 +8°C° 0 mm 2 mps 752 mmHg 64%
    18:00 +6°C° 0 mm 2 mps 752 mmHg 69%
    19:00 +6°C° 0 mm 1 mps 753 mmHg 74%
    20:00 +4°C° 0 mm 1 mps 753 mmHg 79%
    21:00 +4°C° 0 mm 1 mps 753 mmHg 79%
    22:00 +4°C° 0 mm 1 mps 753 mmHg 79%
    23:00 +4°C° 0 mm 1 mps 752 mmHg 79%

    Tomorrow, 21 September, Saturday

    Time Temperature Precipitation Wind Pressure Humidity
    00:00 +4°C° 0 mm 1 mps 752 mmHg 81%
    01:00 +3°C° 0 mm 2 mps 753 mmHg 84%
    02:00 +3°C° 0 mm 2 mps 753 mmHg 86%
    03:00 +3°C° 0 mm 2 mps 752 mmHg 87%
    04:00 +4°C° 0 mm 2 mps 752 mmHg 88%
    05:00 +4°C° 0 mm 2 mps 751 mmHg 88%
    06:00 +4°C° 0 mm 3 mps 751 mmHg 86%
    07:00 +4°C° 0 mm 3 mps 751 mmHg 83%
    08:00 +5°C° 0 mm 4 mps 750 mmHg 80%
    09:00 +6°C° 0 mm 4 mps 750 mmHg 80%
    10:00 +6°C° 0 mm 4 mps 750 mmHg 79%
    11:00 +6°C° 0 mm 4 mps 749 mmHg 79%
    12:00 +6°C° 0.3 mm 4 mps 749 mmHg 84%
    13:00 +7°C° 0.3 mm 3 mps 748 mmHg 89%
    14:00 +7°C° 0.3 mm 3 mps 748 mmHg 94%
    15:00 +7°C° 0.2 mm 3 mps 747 mmHg 95%
    16:00 +8°C° 0.2 mm 3 mps 747 mmHg 96%
    17:00 +8°C° 0.2 mm 2 mps 747 mmHg 97%
    18:00 +9°C° 0.5 mm 3 mps 746 mmHg 97%
    19:00 +10°C° 0.5 mm 3 mps 746 mmHg 96%
    20:00 +10°C° 0.5 mm 4 mps 745 mmHg 96%
    21:00 +11°C° 0.4 mm 4 mps 745 mmHg 95%
    22:00 +10°C° 0.4 mm 5 mps 745 mmHg 95%
    23:00 +10°C° 0.4 mm 5 mps 745 mmHg 94%

    Day after tomorrow, 22 September, Sunday

    Time Temperature Precipitation Wind Pressure Humidity
    00:00 +10°C° 0.7 mm 5 mps 745 mmHg 94%
    01:00 +9°C° 0.7 mm 5 mps 745 mmHg 93%
    02:00 +9°C° 0.7 mm 5 mps 745 mmHg 93%
    03:00 +9°C° 0.5 mm 5 mps 745 mmHg 93%
    04:00 +8°C° 0.5 mm 4 mps 745 mmHg 93%
    05:00 +8°C° 0.5 mm 4 mps 745 mmHg 93%
    06:00 +8°C° 0.2 mm 4 mps 745 mmHg 92%
    07:00 +8°C° 0.2 mm 4 mps 746 mmHg 90%
    08:00 +8°C° 0.2 mm 4 mps 746 mmHg 89%
    09:00 +8°C° 0.1 mm 5 mps 746 mmHg 84%
    10:00 +8°C° 0.1 mm 5 mps 746 mmHg 79%
    11:00 +8°C° 0.1 mm 5 mps 747 mmHg 74%
    12:00 +9°C° 0.1 mm 6 mps 747 mmHg 68%
    13:00 +9°C° 0.1 mm 6 mps 748 mmHg 61%
    14:00 +9°C° 0.1 mm 7 mps 748 mmHg 55%
    15:00 +8°C° 0 mm 6 mps 749 mmHg 58%
    16:00 +7°C° 0 mm 5 mps 750 mmHg 61%
    17:00 +7°C° 0 mm 4 mps 750 mmHg 64%
    18:00 +5°C° 0 mm 4 mps 751 mmHg 70%
    19:00 +4°C° 0 mm 3 mps 752 mmHg 76%
    20:00 +3°C° 0 mm 3 mps 752 mmHg 81%
    21:00 +3°C° 0 mm 2 mps 753 mmHg 84%
    22:00 +3°C° 0 mm 2 mps 753 mmHg 87%
    23:00 +2°C° 0 mm 2 mps 754 mmHg 90%

    23 September, Monday

    Time Temperature Precipitation Wind Pressure Humidity
    00:00 +1°C° 0 mm 2 mps 754 mmHg 91%
    01:00 +2°C° 0 mm 1 mps 754 mmHg 93%
    02:00 +2°C° 0 mm 1 mps 755 mmHg 94%
    03:00 +1°C° 0 mm 1 mps 755 mmHg 95%
    04:00 +1°C° 0 mm 1 mps 755 mmHg 95%
    05:00 +1°C° 0 mm 1 mps 755 mmHg 96%
    06:00 +2°C° 0 mm 1 mps 756 mmHg 91%
    07:00 +3°C° 0 mm 1 mps 756 mmHg 86%
    08:00 +4°C° 0 mm 1 mps 756 mmHg 80%
    09:00 +6°C° 0 mm 1 mps 756 mmHg 73%
    10:00 +6°C° 0 mm 2 mps 756 mmHg 66%
    11:00 +8°C° 0 mm 2 mps 756 mmHg 59%
    12:00 +8°C° 0 mm 2 mps 756 mmHg 58%
    13:00 +8°C° 0 mm 2 mps 755 mmHg 58%
    14:00 +8°C° 0 mm 2 mps 755 mmHg 57%
    15:00 +8°C° 0 mm 2 mps 755 mmHg 60%
    16:00 +8°C° 0 mm 1 mps 755 mmHg 63%
    17:00 +8°C° 0 mm 1 mps 755 mmHg 65%
    18:00 +7°C° 0 mm 1 mps 755 mmHg 70%
    19:00 +6°C° 0 mm 1 mps 755 mmHg 74%
    20:00 +4°C° 0 mm 1 mps 755 mmHg 78%
    21:00 +4°C° 0 mm 1 mps 755 mmHg 81%
    22:00 +3°C° 0 mm 1 mps 755 mmHg 84%
    23:00 +3°C° 0 mm 1 mps 755 mmHg 86%

    24 September, Tuesday

    Time Temperature Precipitation Wind Pressure Humidity
    00:00 +2°C° 0 mm 1 mps 755 mmHg 88%
    01:00 +2°C° 0 mm 1 mps 755 mmHg 90%
    02:00 +1°C° 0 mm 1 mps 755 mmHg 92%
    03:00 +1°C° 0 mm 1 mps 755 mmHg 92%
    04:00 +1°C° 0 mm 1 mps 755 mmHg 93%
    05:00 +1°C° 0 mm 1 mps 755 mmHg 94%
    06:00 +2°C° 0 mm 1 mps 755 mmHg 88%
    07:00 +3°C° 0 mm 1 mps 755 mmHg 83%
    08:00 +5°C° 0 mm 1 mps 755 mmHg 77%
    09:00 +6°C° 0 mm 1 mps 755 mmHg 70%
    10:00 +8°C° 0 mm 1 mps 755 mmHg 62%
    11:00 +10°C° 0 mm 1 mps 755 mmHg 55%
    12:00 +10°C° 0 mm 1 mps 755 mmHg 53%
    13:00 +10°C° 0 mm 1 mps 754 mmHg 52%
    14:00 +10°C° 0 mm 1 mps 754 mmHg 51%
    15:00 +10°C° 0 mm 1 mps 754 mmHg 55%
    16:00 +9°C° 0 mm 1 mps 754 mmHg 60%
    17:00 +8°C° 0 mm 1 mps 754 mmHg 64%
    18:00 +7°C° 0 mm 1 mps 754 mmHg 67%
    19:00 +5°C° 0 mm 0 mps 754 mmHg 71%
    20:00 +4°C° 0 mm 0 mps 754 mmHg 74%
    21:00 +3°C° 0 mm 0 mps 754 mmHg 76%
    22:00 +3°C° 0 mm 0 mps 754 mmHg 78%
    23:00 +3°C° 0 mm 0 mps 754 mmHg 79%

    25 September, Wednesday

    Time Temperature Precipitation Wind Pressure Humidity
    00:00 +2°C° 0 mm 0 mps 754 mmHg 81%
    01:00 +2°C° 0 mm 0 mps 754 mmHg 83%
    02:00 +3°C° 0 mm 1 mps 754 mmHg 84%
    03:00 +3°C° 0 mm 1 mps 754 mmHg 85%
    04:00 +3°C° 0 mm 1 mps 754 mmHg 87%
    05:00 +2°C° 0 mm 1 mps 754 mmHg 88%
    06:00 +3°C° 0 mm 1 mps 754 mmHg 84%
    07:00 +4°C° 0 mm 1 mps 754 mmHg 79%
    08:00 +5°C° 0 mm 1 mps 754 mmHg 75%
    09:00 +6°C° 0 mm 1 mps 754 mmHg 67%
    10:00 +8°C° 0 mm 1 mps 755 mmHg 59%
    11:00 +9°C° 0 mm 1 mps 755 mmHg 52%
    12:00 +9°C° 0 mm 1 mps 755 mmHg 50%
    13:00 +10°C° 0 mm 1 mps 755 mmHg 49%
    14:00 +10°C° 0 mm 1 mps 754 mmHg 48%
    15:00 +9°C° 0 mm 1 mps 754 mmHg 53%
    16:00 +8°C° 0 mm 1 mps 754 mmHg 58%
    17:00 +8°C° 0 mm 1 mps 754 mmHg 63%
    18:00 +6°C° 0 mm 1 mps 755 mmHg 68%
    19:00 +5°C° 0 mm 1 mps 755 mmHg 73%
    20:00 +3°C° 0 mm 1 mps 755 mmHg 78%
    21:00 +3°C° 0 mm 1 mps 755 mmHg 80%
    22:00 +2°C° 0 mm 1 mps 755 mmHg 82%
    23:00 +2°C° 0 mm 1 mps 756 mmHg 84%
    Show more